Vernal, UT

6:57 AM MST on December 14, 2017 (GMT -0700)
Vernal

Weather History for KVEL - March, 2014

Change the Weather History Date:

Friday, March 28, 2014

  Actual Average Record
Temperature  
Mean Temperature 39 °F 42 °F  
Max Temperature 54 °F 54 °F 77 °F (2015)
Min Temperature 23 °F 29 °F 3 °F (1944)
Degree Days  
Heating Degree Days 26 23  
Month to date heating degree days 683 772  
Since 1 July heating degree days 6490 6263  
Cooling Degree Days 0 0  
Month to date cooling degree days 0 0  
Year to date cooling degree days 0 0  
Moisture  
Dew Point 16 °F    
Average Humidity 48    
Maximum Humidity 75    
Minimum Humidity 20    
Precipitation  
Precipitation 0.00 in 0.03 in 0.39 in (2005)
Month to date precipitation 0.54 0.61  
Year to date precipitation 0.95 1.63  
Sea Level Pressure  
Sea Level Pressure 30.09 in    
Wind  
Wind Speed 6 mph (West)    
Max Wind Speed 16 mph    
Max Gust Speed 24 mph    
Visibility 10 miles    
Events      
T = Trace of Precipitation, MM = Missing Value Source: NWS Daily Summary

Daily Weather History Graph

Daily Weather History Graph

Search for Another Location

Airport or City:

Trip Planner

Search our weather history database for the weather conditions in past years. The results will help you decide how hot, cold, wet, or windy it might be!

Date:

Astronomy

Mar. 28, 2014 Rise Set
Actual Time 7:08 AM MDT 7:38 PM MDT
Civil Twilight 6:40 AM MDT 8:05 PM MDT
Nautical Twilight 6:08 AM MDT 8:38 PM MDT
Astronomical Twilight 5:35 AM MDT 9:11 PM MDT
Moon 5:41 AM MDT (3/28) 5:38 PM MDT (3/28)
Length of Visible Light 13h 25m
Length of Day
12h 30m
Waning Crescent, 6% of the Moon is Illuminated
Mar 28
Waning Crescent
Mar 30
New
Apr 7
First Quarter
Apr 15
Full
Apr 22
Last Quarter

Hourly Weather History & Observations

Time (MDT) Temp. Windchill Dew Point Humidity Pressure Visibility Wind Dir Wind Speed Gust Speed Precip Events Conditions
12:53 AM 30.9 °F - 16.0 °F 54% 29.95 in 10.0 mi Calm Calm - N/A   Clear
1:53 AM 28.9 °F 25.2 °F 16.0 °F 58% 29.97 in 10.0 mi North 3.5 mph - N/A   Clear
2:53 AM 26.1 °F 19.4 °F 17.1 °F 69% 29.98 in 10.0 mi WNW 5.8 mph - N/A   Clear
3:53 AM 27.0 °F 23.0 °F 19.0 °F 72% 29.96 in 10.0 mi NNW 3.5 mph - N/A   Clear
4:53 AM 26.1 °F 19.4 °F 18.0 °F 71% 29.98 in 10.0 mi NNW 5.8 mph - N/A   Clear
5:53 AM 23.0 °F 15.8 °F 15.1 °F 72% 30.03 in 10.0 mi West 5.8 mph - N/A   Clear
6:53 AM 25.0 °F 19.3 °F 16.0 °F 69% 30.05 in 10.0 mi NNW 4.6 mph - N/A   Clear
7:53 AM 28.0 °F 22.8 °F 17.1 °F 63% 30.09 in 10.0 mi North 4.6 mph - N/A   Clear
8:53 AM 36.0 °F - 19.0 °F 50% 30.09 in 10.0 mi Calm Calm - N/A   Clear
9:53 AM 37.0 °F 34.5 °F 21.0 °F 52% 30.13 in 10.0 mi SSE 3.5 mph - N/A   Clear
10:53 AM 41.0 °F 35.2 °F 21.9 °F 47% 30.15 in 10.0 mi SSE 9.2 mph - N/A   Clear
11:53 AM 44.1 °F 41.5 °F 19.9 °F 38% 30.14 in 10.0 mi Variable 4.6 mph - N/A   Clear
12:53 PM 48.0 °F - 17.1 °F 29% 30.13 in 10.0 mi SSE 8.1 mph - N/A   Clear
1:53 PM 50.0 °F - 10.0 °F 20% 30.12 in 10.0 mi Variable 3.5 mph - N/A   Clear
2:53 PM 50.0 °F - 10.9 °F 21% 30.12 in 10.0 mi Variable 4.6 mph - N/A   Partly Cloudy
3:53 PM 51.1 °F - 12.9 °F 22% 30.10 in 10.0 mi South 10.4 mph - N/A   Overcast
4:53 PM 52.0 °F - 12.0 °F 20% 30.10 in 10.0 mi SW 8.1 mph 20.7 mph N/A   Mostly Cloudy
5:53 PM 53.1 °F - 14.0 °F 21% 30.11 in 10.0 mi SSW 12.7 mph - N/A   Overcast
6:53 PM 52.0 °F - 14.0 °F 22% 30.12 in 10.0 mi SW 13.8 mph - N/A   Overcast
7:53 PM 48.0 °F - 17.1 °F 29% 30.15 in 10.0 mi West 6.9 mph - N/A   Scattered Clouds
8:53 PM 46.0 °F 41.4 °F 18.0 °F 33% 30.15 in 10.0 mi WSW 9.2 mph - N/A   Clear
9:53 PM 44.1 °F 40.1 °F 18.0 °F 35% 30.16 in 10.0 mi West 6.9 mph - N/A   Clear
10:53 PM 37.0 °F 34.5 °F 17.1 °F 44% 30.19 in 10.0 mi NW 3.5 mph - N/A   Clear
11:53 PM 35.1 °F 30.1 °F 18.0 °F 50% 30.19 in 10.0 mi WNW 5.8 mph - N/A   Clear